Simultaneous Nadir Overpasses (SNOs) Predictions

Prediction of SNOs between LANDSAT-8 and NOAA-19 Satellite Orbit:

Table of predicted SNOs for the next 14.0 days since TLE Epoch: 7/9/2016
Index Date (LANDSAT-8) Time (LANDSAT-8) Lat,Lon (LANDSAT-8) SZA (LANDSAT-8 ) Date (NOAA-19) Time (NOAA-19) Lat,Lon (NOAA-19) SZA (NOAA-19 ) Distance(km) Time Diff (sec)
1 07/10/2016 05:42:40 -74.84, -80.56 127.38 07/10/2016 05:41:58 -74.82, -80.56 127.41 2.89 42
2 07/10/2016 06:32:07 74.77, 86.90 52.56 07/10/2016 06:33:04 74.76, 86.82 52.55 2.64 57
3 07/12/2016 11:16:24 74.84, 16.01 52.93 07/12/2016 11:16:07 74.83, 15.93 52.91 3.21 17
4 07/12/2016 12:05:53 -74.77,-176.54 127.15 07/12/2016 12:07:01 -74.78,-176.66 127.14 3.53 68
5 07/14/2016 16:50:10 -74.84, 112.57 126.74 07/14/2016 16:50:04 -74.83, 112.48 126.75 3.08 6
6 07/16/2016 21:34:24 -75.06, 42.07 126.15 07/16/2016 21:33:13 -75.17, 40.76 126.07 39.14 71
7 07/16/2016 22:23:54 74.83,-150.89 53.61 07/16/2016 22:24:12 74.82,-150.99 53.61 2.94 18
8 07/19/2016 03:08:11 74.89, 138.20 54.07 07/19/2016 03:07:15 74.90, 138.08 54.07 3.42 56
9 07/19/2016 03:57:40 -74.83, -54.33 126.00 07/19/2016 03:58:09 -74.80, -54.37 126.02 2.83 29
10 07/21/2016 08:41:57 -74.89,-125.25 125.52 07/21/2016 08:41:12 -74.86,-125.25 125.54 2.76 45




NCC Satellite Simultaneous Nadir Overpasses (SNOs) Prediction Service
